Montego Bay, Jamaica

12:18 PM EST on December 13, 2017 (GMT -0500)
Sangster International

Weather History for MKJS - November, 2013

Change the Weather History Date:

Friday, November 29, 2013

  Actual Average Record
Temperature  
Mean Temperature 82 °F -  
Max Temperature 88 °F 82 °F 88 °F (2013)
Min Temperature 76 °F 74 °F 73 °F (1996)
Cooling Degree Days 17    
Growing Degree Days 32 (Base 50)    
Moisture  
Dew Point 75 °F    
Average Humidity 83    
Maximum Humidity 94    
Minimum Humidity 68    
Precipitation  
Precipitation 0.00 in - - ()
Sea Level Pressure  
Sea Level Pressure 29.97 in    
Wind  
Wind Speed 5 mph ()    
Max Wind Speed 14 mph    
Max Gust Speed -    
Visibility 7.9 miles    
Events Rain , Thunderstorm    
Averages and records for this station are not official NWS values.
T = Trace of Precipitation, MM = Missing Value Source: Averaged Metar Reports

Daily Weather History Graph

Daily Weather History Graph

Search for Another Location

Airport or City:

Trip Planner

Search our weather history database for the weather conditions in past years. The results will help you decide how hot, cold, wet, or windy it might be!

Date:

Astronomy

Nov. 29, 2013 Rise Set
Actual Time 6:26 AM EST 5:33 PM EST
Civil Twilight 6:03 AM EST 5:56 PM EST
Nautical Twilight 5:36 AM EST 6:23 PM EST
Astronomical Twilight 5:09 AM EST 6:50 PM EST
Moon 2:57 AM EST (11/29) 2:53 PM EST (11/29)
Length of Visible Light 11h 53m
Length of Day
11h 06m
Waning Crescent, 14% of the Moon is Illuminated
Nov 29
Waning Crescent
Dec 2
New
Dec 9
First Quarter
Dec 17
Full
Dec 25
Last Quarter

Hourly Weather History & Observations

Time (EST) Temp. Heat Index Dew Point Humidity Pressure Visibility Wind Dir Wind Speed Gust Speed Precip Events Conditions
12:00 AM 77.0 °F - 73.4 °F 89% 29.98 in 6.2 mi Variable 2.3 mph - N/A   Mostly Cloudy
12:30 AM 77.0 °F - 75.2 °F 94% 29.95 in 3.1 mi East 5.8 mph - N/A Rain Rain Showers
1:00 AM 77 °F - 75 °F 92% 29.97 in 12 mi SSE 3.5 mph - - Rain Light Rain Showers
1:00 AM 77.0 °F - 75.2 °F 94% 29.95 in 6.2 mi SSE 3.5 mph - N/A Rain Rain Showers
2:00 AM 77.0 °F - 71.6 °F 83% 29.95 in 6.2 mi ESE 4.6 mph - N/A   Partly Cloudy
3:00 AM 77.0 °F - 73.4 °F 89% 29.92 in 6.2 mi East 3.5 mph - N/A   Partly Cloudy
4:00 AM 76 °F - 73 °F 86% 29.94 in 12 mi ENE 2.3 mph - -   Scattered Clouds
4:00 AM 77.0 °F - 73.4 °F 89% 29.92 in 6.2 mi Variable 2.3 mph - N/A   Partly Cloudy
5:00 AM 77.0 °F - 73.4 °F 89% 29.95 in 6.2 mi Variable 2.3 mph - N/A   Partly Cloudy
6:00 AM 77.0 °F - 71.6 °F 83% 29.95 in 6.2 mi SE 4.6 mph - N/A   Scattered Clouds
7:00 AM 79 °F - 74 °F 79% 30.00 in 16 mi ESE 3.5 mph - -   Partly Cloudy
7:00 AM 78.8 °F - 73.4 °F 83% 29.98 in 6.2 mi ESE 3.5 mph - N/A   Scattered Clouds
8:00 AM 80.6 °F 85.4 °F 73.4 °F 79% 30.01 in 6.2 mi East 5.8 mph - N/A   Partly Cloudy
9:00 AM 82.4 °F 89.5 °F 75.2 °F 79% 30.01 in 6.2 mi ENE 8.1 mph - N/A   Partly Cloudy
10:00 AM 84 °F - 75 °F 68% 30.03 in 16 mi East 12.7 mph - -   Scattered Clouds
10:00 AM 84.2 °F 92.3 °F 75.2 °F 74% 30.01 in 6.2 mi East 12.7 mph - N/A   Partly Cloudy
11:00 AM 84.2 °F 94.1 °F 77.0 °F 79% 30.01 in 6.2 mi East 13.8 mph - N/A   Scattered Clouds
12:00 PM 80.6 °F 87.1 °F 77.0 °F 89% 29.98 in 6.2 mi NE 13.8 mph - N/A   Scattered Clouds
1:00 PM 85 °F - 76 °F 69% 29.96 in 15 mi NE 11.5 mph - - Rain Light Rain Showers
1:00 PM 84.2 °F 94.1 °F 77.0 °F 79% 29.95 in 6.2 mi NE 11.5 mph - N/A   Partly Cloudy
2:00 PM 84.2 °F 92.3 °F 75.2 °F 74% 29.95 in 6.2 mi ENE 11.5 mph - N/A   Partly Cloudy
3:00 PM 84.2 °F 94.1 °F 77.0 °F 79% 29.92 in 6.2 mi ENE 12.7 mph - N/A   Partly Cloudy
4:00 PM 84 °F - 76 °F 72%  in 15 mi East 13.8 mph - -  
4:00 PM 84.2 °F 94.1 °F 77.0 °F 79% 29.92 in 6.2 mi East 13.8 mph - N/A   Partly Cloudy
5:00 PM 82.4 °F 89.5 °F 75.2 °F 79% 29.92 in 6.2 mi East 10.4 mph - N/A   Partly Cloudy
6:00 PM 80.6 °F 86.2 °F 75.2 °F 84% 29.95 in 6.2 mi East 8.1 mph - N/A   Partly Cloudy
7:00 PM 80 °F - 75 °F 81% 29.97 in 12 mi East 5.8 mph - -   Scattered Clouds
7:00 PM 80.6 °F 86.2 °F 75.2 °F 84% 29.95 in 6.2 mi East 5.8 mph - N/A Thunderstorm Partly Cloudy
8:00 PM 80.6 °F 86.2 °F 75.2 °F 84% 29.98 in 6.2 mi SE 3.5 mph - N/A Thunderstorm Partly Cloudy
9:00 PM 78.8 °F - 75.2 °F 89% 30.01 in 6.2 mi SSE 4.6 mph - N/A Thunderstorm Partly Cloudy
10:00 PM 78 °F - 74 °F 84% 30.01 in 12 mi ENE 3.5 mph - -   Scattered Clouds
10:00 PM 77.0 °F - 73.4 °F 89% 30.01 in 6.2 mi ENE 3.5 mph - N/A   Partly Cloudy
11:00 PM 78.8 °F - 75.2 °F 89% 30.01 in 6.2 mi ESE 3.5 mph - N/A   Partly Cloudy